Spokane Fairchild, WA
on Wednesday, November 14, 2012

Wednesday
Previous Day Next Day
Daily Summary
 ActualAverage (KGEG)Record (KGEG)
Temperature
Mean Temperature °F 36°F  
Max Temperature 35°F 42°F 65°F (1899)
Min Temperature 31°F 30°F -7°F (1955)
Degree Days
Heating Degree Days 32 29  
Month to date heating degree days 368  
Since 1 July heating degree days 1156  
Cooling Degree Days 0 0  
Month to date cooling degree days 0  
Year to date cooling degree days 450  
Moisture
Dew Point 33°F   
Average Humidity 100    
Maximum Humidity 100    
Minimum Humidity 100    
Precipitation
Precipitation 0.00 in 0.07 in 0.74 in (1966)
Month to date precipitation 0.99  
Year to date precipitation 12.95  
Snow
Snow 0.00 in 0.20 in 5.30 in (1903)
Month to date snowfall 1.9  
Since 1 July snowfall 2.0  
Since 1 September snowfall 2.0  
Snow Depth in   
Wind
Wind Speed 7 mph   
Max Wind Speed 12 mph   
Max Gust Speed mph   
Visibility 2 miles   
Events Fog , Rain   

Key: T is trace of precipitation, MM is missing value
Source: NWS Daily Summary
Time(PST)TemperatureDew PointHumidity Pressure Visibility Wind DirectionWind SpeedGust SpeedPrecipitationEvents Conditions
12:08 AM 33.8°F 33.8°F 100% 30.14 in 10.0 miles ESE 3.5 mph - N/A   Overcast
12:43 AM 35.6°F 35.6°F 100% 30.14 in 10.0 miles South 5.8 mph - N/A   Overcast
12:58 AM 34.9°F 34.9°F 100% 30.21 in 10.0 miles SSE 5.8 mph - N/A   Overcast
1:18 AM 35.6°F 35.6°F 100% 30.14 in 10.0 miles South 8.1 mph - N/A   Overcast
1:23 AM 35.6°F 35.6°F 100% 30.14 in 10.0 miles South 9.2 mph - N/A   Overcast
1:28 AM 35.6°F 35.6°F 100% 30.14 in 10.0 miles South 9.2 mph - N/A   Overcast
1:38 AM 35.6°F 35.6°F 100% 30.13 in 10.0 miles South 6.9 mph - N/A   Overcast
1:48 AM 35.6°F 35.6°F 100% 30.14 in 10.0 miles SSW 5.8 mph - N/A   Overcast
1:58 AM 35.6°F 35.6°F 100% 30.21 in 10.0 miles SW 4.6 mph - N/A   Overcast
2:03 AM 35.6°F 35.6°F 100% 30.14 in 10.0 miles SW 4.6 mph - N/A   Overcast
2:13 AM 35.6°F 35.6°F 100% 30.14 in 10.0 miles SW 5.8 mph - N/A   Overcast
2:23 AM 35.6°F 35.6°F 100% 30.14 in 10.0 miles SW 5.8 mph - N/A   Overcast
2:38 AM 35.6°F 35.6°F 100% 30.14 in 10.0 miles South 5.8 mph - N/A   Overcast
2:47 AM 35.6°F 35.6°F 100% 30.14 in 6.0 miles SW 8.1 mph - N/A   Overcast
2:50 AM 35.6°F 35.6°F 100% 30.14 in 4.0 miles SW 8.1 mph - N/A   Overcast
2:54 AM 35.6°F 35.6°F 100% 30.14 in 3.0 miles SW 8.1 mph - N/A   Overcast
2:57 AM 35.6°F 35.6°F 100% 30.14 in 2.5 miles SW 8.1 mph - N/A   Overcast
2:58 AM 35.6°F 35.6°F 100% 30.21 in 2.5 miles SW 8.1 mph - 0.00 in   Overcast
3:03 AM 35.6°F 35.6°F 100% 30.14 in 1.8 miles SW 6.9 mph - N/A   Overcast
3:08 AM 35.6°F 35.6°F 100% 30.14 in 1.2 miles SSW 8.1 mph - N/A   Overcast
3:13 AM 35.6°F 35.6°F 100% 30.14 in 1.0 miles SW 8.1 mph - N/A   Mist
3:18 AM 35.6°F 35.6°F 100% 30.14 in 0.8 miles SW 8.1 mph - N/A   Mist
3:23 AM 35.6°F 35.6°F 100% 30.14 in 0.8 miles SW 10.4 mph - N/A   Mist
3:28 AM 33.8°F 33.8°F 100% 30.14 in 0.8 miles SSW 10.4 mph - N/A   Mist
3:33 AM 33.8°F 33.8°F 100% 30.13 in 1.0 miles SSW 9.2 mph - N/A   Mist
3:34 AM 33.8°F 33.8°F 100% 30.13 in 1.0 miles SSW 9.2 mph - N/A   Mist
3:39 AM 33.8°F 33.8°F 100% 30.13 in 0.8 miles SSW 9.2 mph - N/A   Mist
3:44 AM 33.8°F 33.8°F 100% 30.13 in 0.8 miles SSW 9.2 mph - N/A   Mist
3:45 AM 33.8°F 33.8°F 100% 30.13 in 0.8 miles SSW 9.2 mph - N/A   Mist
3:46 AM 33.8°F 33.8°F 100% 30.13 in 0.8 miles SSW 8.1 mph - N/A   Mist
3:51 AM 33.8°F 33.8°F 100% 30.13 in 0.5 miles SSW 9.2 mph - N/A Fog Fog
3:58 AM 34.2°F 34.2°F 100% 30.20 in 0.5 miles SSW 8.1 mph - 0.00 in Fog Fog
3:59 AM 33.8°F 33.8°F 100% 30.13 in 0.5 miles SSW 8.1 mph - N/A Fog Fog
4:04 AM 33.8°F 33.8°F 100% 30.13 in 0.8 miles SW 8.1 mph - N/A   Mist
4:05 AM 33.8°F 33.8°F 100% 30.13 in 0.8 miles SW 9.2 mph - N/A   Mist
4:40 AM 32.0°F 32.0°F 100% 30.13 in 0.5 miles SW 8.1 mph - N/A Fog , Rain Light Rain
4:45 AM 32.0°F 32.0°F 100% 30.13 in 0.5 miles SW 8.1 mph - N/A Fog Light Drizzle
4:52 AM 32.0°F 32.0°F 100% 30.14 in 0.5 miles SW 10.4 mph - N/A Fog Fog
4:58 AM 33.4°F 33.4°F 100% 30.21 in 0.5 miles SW 10.4 mph - 0.00 in Fog Fog
5:08 AM 32.0°F 32.0°F 100% 30.14 in 0.5 miles SW 9.2 mph - N/A Fog Light Drizzle
5:18 AM 32.0°F 32.0°F 100% 30.14 in 0.5 miles SW 9.2 mph - N/A Fog Light Drizzle
5:19 AM 32.0°F 32.0°F 100% 30.14 in 0.5 miles SSW 9.2 mph - N/A Fog Fog
5:24 AM 32.0°F 32.0°F 100% 30.14 in 0.5 miles SSW 5.8 mph - N/A Fog Fog
5:34 AM 32.0°F 32.0°F 100% 30.15 in 0.5 miles SW 5.8 mph - N/A Fog Fog
5:44 AM 32.0°F 32.0°F 100% 30.15 in 0.5 miles SW 6.9 mph - N/A Fog Fog
5:49 AM 32.0°F 32.0°F 100% 30.15 in 0.5 miles SW 8.1 mph - N/A Fog Fog
5:58 AM 33.1°F 33.1°F 100% 30.22 in 0.5 miles SW 6.9 mph - 0.00 in Fog Fog
6:05 AM 32.0°F 32.0°F 100% 30.15 in 0.5 miles SW 8.1 mph - N/A Fog , Rain Light Rain
6:16 AM 32.0°F 32.0°F 100% 30.15 in 0.5 miles SW 8.1 mph - N/A Fog Fog
6:21 AM 32.0°F 32.0°F 100% 30.16 in 0.5 miles SW 10.4 mph - N/A Fog , Rain Light Rain
6:26 AM 32.0°F 32.0°F 100% 30.16 in 0.5 miles SW 10.4 mph - N/A Fog , Rain Light Rain
6:46 AM 32.0°F 32.0°F 100% 30.16 in 0.2 miles SW 11.5 mph - N/A Fog Light Freezing Drizzle
6:55 AM 32.0°F 32.0°F 100% 30.23 in 0.1 miles SW 10.4 mph - 0.00 in Fog Light Freezing Fog
7:08 AM 32.0°F 32.0°F 100% 30.17 in 0.2 miles SSW 8.1 mph - N/A Fog Light Freezing Drizzle
7:09 AM 32.0°F 32.0°F 100% 30.17 in 0.1 miles SSW 8.1 mph - N/A Fog Light Freezing Drizzle
7:13 AM 32.0°F 32.0°F 100% 30.18 in 0.2 miles SW 9.2 mph - N/A Fog Light Freezing Drizzle
7:18 AM 32.0°F 32.0°F 100% 30.18 in 0.2 miles SW 8.1 mph - N/A Fog Light Freezing Drizzle
7:22 AM 32.0°F 32.0°F 100% 30.18 in 0.2 miles SW 8.1 mph - N/A Fog Light Freezing Fog
7:27 AM 32.0°F 32.0°F 100% 30.18 in 0.2 miles SW 8.1 mph - N/A Fog Light Freezing Drizzle
7:52 AM 32.0°F 32.0°F 100% 30.18 in 0.5 miles SW 9.2 mph - N/A Fog Light Freezing Drizzle
7:58 AM 32.0°F 32.0°F 100% 30.25 in 0.5 miles SW 11.5 mph - 0.00 in Fog Light Freezing Drizzle
8:03 AM 32.0°F 32.0°F 100% 30.18 in 0.8 miles SSW 11.5 mph - N/A   Light Freezing Drizzle
8:08 AM 32.0°F 32.0°F 100% 30.18 in 1.0 miles SW 10.4 mph - N/A   Light Freezing Drizzle
8:15 AM 32.0°F 32.0°F 100% 30.18 in 1.0 miles SSW 10.4 mph - N/A   Mist
8:16 AM 32.0°F 32.0°F 100% 30.18 in 1.0 miles SSW 8.1 mph - N/A   Light Freezing Drizzle
8:21 AM 32.0°F 32.0°F 100% 30.18 in 1.2 miles SSW 10.4 mph - N/A   Light Freezing Drizzle
8:26 AM 32.0°F 32.0°F 100% 30.19 in 2.0 miles SSW 10.4 mph - N/A   Light Freezing Drizzle
8:32 AM 32.0°F 32.0°F 100% 30.19 in 1.8 miles SSW 9.2 mph - N/A   Light Freezing Drizzle
8:37 AM 32.0°F 32.0°F 100% 30.19 in 1.2 miles SSW 8.1 mph - N/A   Light Freezing Drizzle
8:42 AM 32.0°F 32.0°F 100% 30.20 in 1.0 miles SSW 6.9 mph - N/A   Light Freezing Drizzle
8:47 AM 32.0°F 32.0°F 100% 30.20 in 1.2 miles SW 9.2 mph - N/A   Light Freezing Drizzle
8:52 AM 32.0°F 32.0°F 100% 30.20 in 1.0 miles SW 5.8 mph - N/A   Light Freezing Drizzle
8:57 AM 32.0°F 32.0°F 100% 30.20 in 0.8 miles SSW 5.8 mph - N/A   Light Freezing Drizzle
8:58 AM 31.6°F 31.6°F 100% 30.27 in 0.8 miles SSW 6.9 mph - 0.00 in   Light Freezing Drizzle
9:03 AM 32.0°F 32.0°F 100% 30.21 in 0.8 miles SW 6.9 mph - N/A   Light Freezing Drizzle
9:08 AM 32.0°F 32.0°F 100% 30.21 in 1.2 miles SSW 8.1 mph - N/A   Light Freezing Drizzle
9:13 AM 32.0°F 32.0°F 100% 30.21 in 1.5 miles SSW 8.1 mph - N/A Rain Light Freezing Rain
9:18 AM 32.0°F 32.0°F 100% 30.21 in 1.2 miles SSW 8.1 mph - N/A Rain Light Freezing Rain
9:23 AM 32.0°F 32.0°F 100% 30.21 in 1.0 miles SW 9.2 mph - N/A Rain Light Freezing Rain
9:24 AM 32.0°F 32.0°F 100% 30.21 in 1.0 miles SSW 8.1 mph - N/A   Mist
9:25 AM 32.0°F 32.0°F 100% 30.21 in 1.0 miles SSW 8.1 mph - N/A   Mist
9:26 AM 32.0°F 32.0°F 100% 30.21 in 1.0 miles SSW 8.1 mph - N/A   Mist
9:31 AM 32.0°F 32.0°F 100% 30.21 in 1.2 miles SSW 10.4 mph - N/A   Overcast
9:36 AM 32.0°F 32.0°F 100% 30.21 in 1.8 miles SSW 9.2 mph - N/A   Overcast
9:41 AM 32.0°F 32.0°F 100% 30.21 in 2.5 miles SW 10.4 mph - N/A   Overcast
9:45 AM 32.0°F 32.0°F 100% 30.22 in 2.5 miles SW 9.2 mph - N/A   Overcast
9:50 AM 32.0°F 32.0°F 100% 30.22 in 1.8 miles SW 6.9 mph - N/A   Overcast
9:58 AM 31.8°F 31.8°F 100% 30.30 in 1.5 miles SW 6.9 mph - 0.00 in   Overcast
10:04 AM 32.0°F 32.0°F 100% 30.22 in 1.2 miles SW 6.9 mph - N/A   Overcast
10:14 AM 32.0°F 32.0°F 100% 30.23 in 1.8 miles SW 8.1 mph - N/A   Overcast
10:15 AM 32.0°F 32.0°F 100% 30.23 in 1.8 miles SW 8.1 mph - N/A   Overcast
10:26 AM 32.0°F 32.0°F 100% 30.23 in 1.2 miles SW 5.8 mph - N/A   Overcast
10:30 AM 32.0°F 32.0°F 100% 30.23 in 1.0 miles SW 6.9 mph - N/A   Mist
10:35 AM 32.0°F 32.0°F 100% 30.23 in 1.2 miles WSW 6.9 mph - N/A   Overcast
10:39 AM 32.0°F 32.0°F 100% 30.23 in 1.5 miles WSW 6.9 mph - N/A   Overcast
10:41 AM 32.0°F 32.0°F 100% 30.23 in 1.2 miles WSW 8.1 mph - N/A   Overcast
10:44 AM 32.0°F 32.0°F 100% 30.23 in 1.0 miles WSW 8.1 mph - N/A   Mist
10:53 AM 32.0°F 32.0°F 100% 30.24 in 1.2 miles WSW 5.8 mph - N/A   Overcast
10:55 AM 32.0°F 32.0°F 100% 30.24 in 1.5 miles WSW 5.8 mph - N/A   Overcast
11:05 AM 32.0°F 32.0°F 100% 30.24 in 1.2 miles SW 5.8 mph - N/A   Overcast
11:14 AM 32.0°F 32.0°F 100% 30.24 in 1.0 miles WSW 8.1 mph - N/A   Mist
11:20 AM 32.0°F 32.0°F 100% 30.24 in 1.0 miles SW 6.9 mph - N/A   Mist
11:22 AM 32.0°F 32.0°F 100% 30.24 in 1.0 miles SW 8.1 mph - N/A   Mist
11:25 AM 32.0°F 32.0°F 100% 30.24 in 1.0 miles WSW 8.1 mph - N/A   Mist
11:32 AM 32.0°F 32.0°F 100% 30.24 in 1.2 miles SW 6.9 mph - N/A   Overcast
11:33 AM 32.0°F 32.0°F 100% 30.24 in 1.2 miles SW 6.9 mph - N/A   Overcast
11:35 AM 32.0°F 32.0°F 100% 30.24 in 1.5 miles SSW 6.9 mph - N/A   Overcast
11:38 AM 32.0°F 32.0°F 100% 30.24 in 2.0 miles SW 8.1 mph - N/A   Overcast
11:55 AM 32.7°F 32.7°F 100% 30.30 in 1.8 miles WSW 6.9 mph - N/A   Overcast
12:00 PM 32.0°F 32.0°F 100% 30.23 in 1.2 miles SW 6.9 mph - N/A   Overcast
12:04 PM 32.0°F 32.0°F 100% 30.23 in 1.0 miles SW 6.9 mph - N/A   Mist
12:09 PM 32.0°F 32.0°F 100% 30.24 in 1.2 miles SW 6.9 mph - N/A   Overcast
12:11 PM 32.0°F 32.0°F 100% 30.24 in 1.8 miles SW 6.9 mph - N/A   Overcast
12:13 PM 32.0°F 32.0°F 100% 30.24 in 2.0 miles SSW 8.1 mph - N/A   Overcast
12:16 PM 32.0°F 32.0°F 100% 30.24 in 4.0 miles SW 5.8 mph - N/A   Overcast
12:55 PM 33.4°F 33.4°F 100% 30.31 in 1.5 miles WSW 4.6 mph - N/A   Overcast
1:00 PM 32.0°F 32.0°F 100% 30.24 in 1.2 miles WSW 2.3 mph - N/A   Overcast
1:15 PM 32.0°F 32.0°F 100% 30.24 in 1.5 miles West 2.3 mph - N/A   Overcast
1:53 PM 32.0°F 32.0°F 100% 30.24 in 1.5 miles WSW 3.5 mph - N/A   Overcast
1:55 PM 33.4°F 33.4°F 100% 30.31 in 1.2 miles WSW 3.5 mph - N/A   Overcast
1:58 PM 33.4°F 33.4°F 100% 30.32 in 1.5 miles WSW 4.6 mph - N/A   Overcast
2:41 PM 33.8°F 33.8°F 100% 30.24 in 1.8 miles WSW 3.5 mph - N/A   Overcast
2:51 PM 33.8°F 33.8°F 100% 30.25 in 2.0 miles WSW 1.2 mph - N/A   Overcast
2:55 PM 34.0°F 34.0°F 100% 30.32 in 2.5 miles Calm Calm - 0.00 in   Overcast
3:03 PM 33.8°F 33.8°F 100% 30.25 in 3.0 miles West 2.3 mph - N/A   Overcast
3:51 PM 33.8°F 33.8°F 100% 30.26 in 5.0 miles NE 4.6 mph - N/A   Overcast
3:55 PM 34.0°F 34.0°F 100% 30.33 in 2.0 miles NNE 5.8 mph - 0.00 in   Overcast
3:57 PM 33.8°F 33.8°F 100% 30.26 in 1.5 miles NNE 4.6 mph - N/A   Overcast
4:00 PM 33.8°F 33.8°F 100% 30.26 in 1.2 miles NNE 5.8 mph - N/A   Overcast
4:02 PM 33.8°F 33.8°F 100% 30.26 in 1.0 miles NE 5.8 mph - N/A   Overcast
4:06 PM 33.8°F 33.8°F 100% 30.26 in 0.8 miles NE 5.8 mph - N/A   Mist
4:08 PM 33.8°F 33.8°F 100% 30.26 in 0.8 miles NE 5.8 mph - N/A   Mist
4:13 PM 33.8°F 33.8°F 100% 30.26 in 0.5 miles NNE 5.8 mph - N/A Fog Fog
4:18 PM 33.8°F 33.8°F 100% 30.26 in 0.2 miles NNE 5.8 mph - N/A Fog Fog
4:19 PM 33.8°F 33.8°F 100% 30.26 in 0.2 miles NNE 5.8 mph - N/A Fog Fog
4:20 PM 33.8°F 33.8°F 100% 30.26 in 0.2 miles NE 4.6 mph - N/A Fog Fog
4:25 PM 33.8°F 33.8°F 100% 30.26 in 0.2 miles NNE 5.8 mph - N/A Fog Fog
4:30 PM 32.0°F 32.0°F 100% 30.26 in 0.2 miles NNE 5.8 mph - N/A Fog Fog
4:35 PM 32.0°F 32.0°F 100% 30.26 in 0.5 miles NE 6.9 mph - N/A Fog Fog
4:40 PM 32.0°F 32.0°F 100% 30.26 in 0.8 miles NE 5.8 mph - N/A   Mist
4:45 PM 32.0°F 32.0°F 100% 30.26 in 0.8 miles NE 5.8 mph - N/A   Mist
4:50 PM 32.0°F 32.0°F 100% 30.27 in 0.8 miles NNE 4.6 mph - N/A   Mist
4:58 PM 33.3°F 33.3°F 100% 30.35 in 0.8 miles NNE 5.8 mph - 0.00 in   Mist
5:03 PM 32.0°F 32.0°F 100% 30.27 in 2.0 miles North 5.8 mph - N/A   Overcast
5:10 PM 32.0°F 32.0°F 100% 30.27 in 2.0 miles North 4.6 mph - N/A   Overcast
5:15 PM 32.0°F 32.0°F 100% 30.28 in 1.8 miles NNW 4.6 mph - N/A   Overcast
5:23 PM 32.0°F 32.0°F 100% 30.28 in 1.5 miles NNW 4.6 mph - N/A   Overcast
5:28 PM 32.0°F 32.0°F 100% 30.28 in 1.2 miles North 5.8 mph - N/A   Overcast
5:38 PM 32.0°F 32.0°F 100% 30.28 in 1.0 miles North 5.8 mph - N/A   Mist
5:42 PM 32.0°F 32.0°F 100% 30.28 in 1.0 miles North 5.8 mph - N/A   Mist
5:44 PM 32.0°F 32.0°F 100% 30.28 in 1.0 miles North 4.6 mph - N/A   Mist
5:49 PM 32.0°F 32.0°F 100% 30.28 in 1.0 miles North 4.6 mph - N/A   Mist
5:58 PM 32.9°F 32.9°F 100% 30.36 in 1.0 miles North 5.8 mph - 0.00 in   Mist
6:02 PM 32.0°F 32.0°F 100% 30.29 in 1.2 miles North 5.8 mph - N/A   Overcast
6:12 PM 32.0°F 32.0°F 100% 30.28 in 1.5 miles North 5.8 mph - N/A   Overcast
6:17 PM 32.0°F 32.0°F 100% 30.28 in 1.5 miles Variable 3.5 mph - N/A   Overcast
6:18 PM 32.0°F 32.0°F 100% 30.28 in 1.5 miles Variable 4.6 mph - N/A   Overcast
6:28 PM 32.0°F 32.0°F 100% 30.28 in 1.8 miles North 4.6 mph - N/A   Overcast
6:33 PM 32.0°F 32.0°F 100% 30.29 in 2.5 miles NNE 4.6 mph - N/A   Overcast
6:38 PM 32.0°F 32.0°F 100% 30.29 in 5.0 miles NNE 5.8 mph - N/A   Overcast
6:58 PM 33.4°F 33.4°F 100% 30.37 in 4.0 miles NE 5.8 mph - 0.00 in   Overcast
7:18 PM 32.0°F 32.0°F 100% 30.29 in 3.0 miles NNE 5.8 mph - N/A   Overcast
7:20 PM 32.0°F 32.0°F 100% 30.30 in 3.0 miles NE 6.9 mph - N/A   Overcast
7:30 PM 32.0°F 32.0°F 100% 30.30 in 4.0 miles NNE 6.9 mph - N/A   Overcast
7:35 PM 32.0°F 32.0°F 100% 30.30 in 6.0 miles NNE 6.9 mph - N/A   Overcast
7:45 PM 32.0°F 32.0°F 100% 30.30 in 8.0 miles NNE 5.8 mph - N/A   Overcast
7:58 PM 33.6°F 33.6°F 100% 30.38 in 7.0 miles North 4.6 mph - 0.00 in   Overcast
8:03 PM 32.0°F 32.0°F 100% 30.30 in 6.0 miles North 5.8 mph - N/A   Overcast
8:33 PM 32.0°F 32.0°F 100% 30.30 in 8.0 miles North 5.8 mph - N/A   Overcast
8:43 PM 32.0°F 32.0°F 100% 30.30 in 10.0 miles NNE 4.6 mph - N/A   Overcast
8:58 PM 33.6°F 33.6°F 100% 30.38 in 10.0 miles NNE 4.6 mph - N/A   Overcast
9:08 PM 32.0°F 32.0°F 100% 30.30 in 10.0 miles NNE 5.8 mph - N/A   Overcast
9:18 PM 32.0°F 32.0°F 100% 30.30 in 10.0 miles North 5.8 mph - N/A   Overcast
9:33 PM 32.0°F 32.0°F 100% 30.30 in 10.0 miles North 4.6 mph - N/A   Overcast
9:38 PM 32.0°F 32.0°F 100% 30.30 in 10.0 miles North 5.8 mph - N/A   Overcast
9:48 PM 32.0°F 32.0°F 100% 30.30 in 7.0 miles North 4.6 mph - N/A   Overcast
9:58 PM 32.0°F 32.0°F 100% 30.38 in 8.0 miles North 5.8 mph - N/A   Overcast
10:58 PM 33.3°F 33.3°F 100% 30.30 in 7.0 miles North 5.8 mph - N/A   Overcast
11:18 PM 32.0°F 32.0°F 100% 30.30 in 7.0 miles North 6.9 mph - N/A   Overcast
11:43 PM 32.0°F 32.0°F 100% 30.31 in 4.0 miles North 9.2 mph - N/A   Overcast
11:53 PM 32.0°F 32.0°F 100% 30.31 in 5.0 miles North 8.1 mph - N/A   Overcast
11:58 PM 33.3°F 33.3°F 100% 30.30 in 6.0 miles NNE 6.9 mph - N/A   Overcast
Moon Phase
Nov. 14 Nov. 20 Nov. 28 Dec. 06 Dec. 13
Sunrise:06:55 AM (PST) Moon Rise:07:54 AM (PST)11/14
Sunset:04:14 PM (PST) Moon Set:05:02 PM (PST)11/14

Copyright © 2014 The Weather Underground, Inc.